{"data":{"norad_id":67278,"epoch":"2026-09-20T22:38:03.012288Z","epoch_age_seconds":64800,"freshness":"FRESH","line1":"1 67278U 25313AG  26263.94309042  .00004035  00000+0  17160-3 0  9993","line2":"2 67278  97.3817 336.9247 0014898  37.0377 323.1886 15.23498678 40534","mean_motion":15.23498678,"eccentricity":0.0014898,"inclination_deg":97.3817,"raan_deg":336.9247,"arg_perigee_deg":37.0377,"mean_anomaly_deg":323.1886,"bstar":0.0001716,"rev_number":4053,"period_min":94.519281230384,"perigee_km":485.05727418432,"apogee_km":505.53735907415,"semimajor_km":6873.4343166292,"source":"CELESTRAK","updated_at":"2026-09-21T09:00:16.546044Z"}}